Location: Aciu?a
(46.2833°N, 22.4500°E)
Time: 16:29:01
(UTC+00:00)

Cosmos 1455 - Pass Details

Date: 03 June 2022
Orbit: 492 x 515 km, 82.5° (Epoch: 29 June)

Event Time Altitude Azimuth Distance (km) Brightness Sun altitude
Rises 23:33:34 0° 347° (NNW) 2,585 6.8 -19.7°
Reaches altitude 10° 23:35:42 10° 344° (NNW) 1,699 5.6 -19.6°
Maximum altitude 23:39:21 59° 264° (W) 578 2.2 -19.5°
Enters shadow 23:39:42 56° 236° (WSW) 597 2.2 -19.4°
